NWS Home NWS Lubbock West Texas Mesonet Latest Conditions as of 1022 AM, Sat Apr 29, 2017

Latest   N   C   S   Daily Sum   3hrΔ   24hrΔ   Soil Data 
Site Map   24hr Precip   72hr Precip   Google Plot


Station Time of Last Temp Dew Pt. RH Wind Direction Wind Speed Wind Gust Max Wind Max Temp Min Temp Max RH Min RH Altimeter 1HR Rain Today's Rain Solar Rad Wind Chill
Abernathy 5ENE  10:10 AM 40 38 96% N2735 39 mph 7° @ 0540 AM 52 40 97 83 29.84" 0 0.07 83  
Aiken 3WSW  10:10 AM 39 38 94% NW3134 42 mph 359° @ 0209 AM 52 39 98 80 29.84" 0 0.06 68  
Amarillo 15NNW   10:10 AM 33 33 99% NW1826 36 mph 359° @ 0540 AM 45 33 100 92 29.95" 0.01 0.47 74 22
Amarillo 7SSE  10:10 AM 33 32 95% NW2230 46 mph 24° @ 0322 AM 46 33 96 90 29.91" 0.01 0.36 67 21
Amarillo 9NNE  10:10 AM 32 32 100% N1824 37 mph 14° @ 0637 AM 46 32 100 91 29.92" 0.02 0.21 84 20
Amherst 1NE  10:10 AM 37 34 92% N2938 40 mph 345° @ 0950 AM 49 36 94 79 29.85" 0 0 199  
Andrews 2E  10:10 AM 50 41 71% N2230 38 mph 352° @ 0735 AM 75 49 82 33 29.80" 0 0 209  
Anton 6SSW  10:10 AM 38 35 93% N3139 39 mph 338° @ 1010 AM 52 38 98 83 29.84" 0 0.13 76  
Aspermont 3NE  10:10 AM 50 47 91% NW1823 31 mph 324° @ 0350 AM 75 49 96 66 29.72" 0 0.48 104  
Big Bend NP - Persimmon Gap  10:10 AM 71 40 32% N2730 35 mph 356° @ 1007 AM 78 64 73 30 29.68" 0 0 477  
Big Lake 1WNW  10:10 AM 58 47 66% NW2126 30 mph 154° @ 0304 AM 76 57 80 44 29.75" 0 0 285  
Bootleg 11WNW  10:10 AM 31 30 94% N2427 34 mph 10° @ 0637 AM 44 31 96 92 29.94" 0 0.06 279 18
Boys Ranch 1WSW  10:10 AM 35 33 92% N1726 29 mph 26° @ 0434 AM 46 34 94 86 29.96" 0.04 0.51 97 25
Brownfield 2S  10:10 AM 45 40 84% N2434 38 mph 359° @ 0830 AM 57 45 93 68 29.81" 0 0.08 103  
Canadian 6E  10:10 AM 41 39 94% N1923 57 mph 28° @ 0430 AM 51 39 96 83 29.80" 0.02 0.65 24  
Caprock Canyons State Park  10:10 AM 42 40 91% NW1620 41 mph 352° @ 0604 AM 54 42 98 75 29.80" 0 0.67 138  
Childress 2NNE  10:05 AM 45 43 95% NW2228 48 mph 342° @ 0350 AM 67 45 98 62 29.74" 0 1.23 102  
Clarendon 2WSW  10:10 AM 41 38 91% N2128 46 mph 37° @ 0345 AM 52 40 92 77 29.79" 0.01 0.57 98  
Claude 12SW  10:10 AM 35 33 94% NW2839 45 mph 309° @ 0137 AM 47 35 97 86 29.85" 0.03 0.31 57 22
Clyde 2WNW  10:10 AM 50 48 95% NW1317 33 mph 163° @ 0412 AM 75 50 95 64 29.69" 0 0 35  
Coyanosa 2N  10:10 AM 59 42 53% NW1617 30 mph 300° @ 0150 AM 84 56 61 22 29.82" 0 0 217  
Crowell 1E  10:10 AM 50 48 92% N1921 45 mph 18° @ 0529 AM 74 48 97 71 29.70" 0 0.96 155  
Dell City  10:10 AM 47 38 71% NW1922 32 mph 331° @ 0358 AM 74 47 87 31 29.91" 0.01 0.01 53  
Denver City 7WNW  10:10 AM 45 37 76% N2534 36 mph 359° @ 0635 AM 52 45 88 66 29.81" 0 0 152  
Dimmitt 2NE  10:10 AM 33 32 97% NW2533 40 mph 326° @ 1235 AM 45 33 98 90 29.89" 0.01 0.04 84 20
Dora NM 2SW  10:10 AM 35 34 97% N2635 37 mph 356° @ 0820 AM 49 34 99 65 29.86" 0 0.08 126 23
Dozier 3W  10:10 AM 43 41 93% N2029 59 mph 350° @ 0308 AM 55 42 96 75 29.77" 0 0.55 127  
Floydada 2NNE  10:10 AM 42 40 93% N2233 37 mph 9° @ 0835 AM 55 42 100 77 29.80" 0 0.30 99  
Fluvanna 3WNW  10:10 AM 48 43 83% N2329 42 mph 3° @ 0730 AM 74 48 88 60 29.75" 0 0 98  
Fort Chadbourne  10:10 AM 53 47 80% N1114 30 mph 10° @ 0859 AM 76 53 91 68 29.70" 0 0 83  
Fort Lancaster  10:10 AM 64 49 57% NW1621 31 mph 145° @ 0322 AM 77 63 80 40 29.73" 0 0 267  
Fort Lewis CO  10:10 AM 30 25 82% E1014 16 mph 81° @ 0945 AM 30 16 95 75 29.91" 0 0 219 21
Fort McKavett  10:10 AM 73 67 83% S811 24 mph 135° @ 0233 AM 75 70 87 78 29.65" 0 0 207  
Friona 2NE  10:10 AM 32 31 100% N2227 35 mph 3° @ 0750 AM 45 32 100 91 29.92" 0.02 0.06 114 20
Gail 2ESE  10:10 AM 50 42 76% N1926 33 mph 353° @ 0810 AM 71 50 80 62 29.77" 0 0 79  
Goodlett 3W  10:10 AM 48 45 90% NW1924 52 mph 356° @ 0500 AM 68 47 96 64 29.71" 0 1.02 82  
Goodnight  10:10 AM 37 36 95% NW2632 47 mph 15° @ 0322 AM 49 37 99 86 29.84" 0 0.95 49  
Graham 5SSW  10:10 AM 48 41 78% N2232 37 mph 335° @ 0225 AM 73 46 89 56 29.78" 0 0 85  
Guadalupe Mtns Natl Park  10:10 AM 41 39 93% S69 35 mph 275° @ 1222 AM 68 41 93 30 29.87" 0 0 36  
Guthrie 10WSW  10:10 AM 48 44 86% N2331 42 mph 360° @ 0450 AM 73 47 94 67 29.71" 0 0.03 210  
Hart 3N  10:10 AM 34 33 95% NW2935 42 mph 8° @ 0240 AM 47 34 96 88 29.87" 0 0 46 20
Haskell 1NW  10:10 AM 50 49 98% N2127 34 mph 350° @ 0810 AM 76 49 99 67 29.68" 0.01 0.04 115  
Hereford 2NW  10:10 AM 33 33 100% N2432 35 mph 26° @ 0600 AM 45 32 100 85 29.91" 0.03 0.11 101 20
Hobbs NM 5NW  10:10 AM 48 40 75% NE1822 33 mph 5° @ 0615 AM 53 47 81 61 29.84" 0 0 61  
Jayton 1SSE  10:10 AM 50 44 80% N2026 29 mph 0° @ 0715 AM 74 48 91 69 29.73" 0 0 147  
Junction 1SSW  10:10 AM 77 67 72% S913 22 mph 171° @ 0207 AM 77 70 86 71 29.63" 0 0 115  
Knox City 3NW  10:10 AM 52 47 84% N2130 33 mph 356° @ 0515 AM 76 50 91 63 29.70" 0 0.30 164  
Lake Alan Henry 1NW  10:10 AM 49 42 76% N2126 30 mph 15° @ 0704 AM 75 48 86 57 29.76" 0 0 103  
Lamesa 2SE  10:10 AM 48 43 82% N2027 36 mph 358° @ 0810 AM 73 48 83 55 29.80" 0 0 166  
Levelland 4S  10:10 AM 39 36 89% N2837 37 mph 356° @ 1010 AM 52 39 92 75 29.83" 0 0.06 155  
Lomax 1SSE  10:10 AM 53 44 73% N1417 29 mph 352° @ 0842 AM 77 52 76 45 29.79" 0 0 92  
Lubbock 3WNW TTU  10:10 AM 43 41 95% N1826 34 mph 356° @ 0915 AM 56 43 100 69 29.84" 0 0.32 82  
McCamey 1SSW  10:10 AM 58 45 62% NW1319 33 mph 148° @ 0121 AM 80 57 68 32 29.79" 0 0 211  
McLean 1E  10:05 AM 40 39 99% N2431 50 mph 359° @ 0315 AM 50 40 100 84 29.76" 0.03 0.69 120  
Memphis 1NE  10:10 AM 45 42 88% N2230 54 mph 287° @ 0255 AM 56 45 92 72 29.75" 0 0.31 170  
Menard 2NW   10:10 AM 74 66 76% S710 23 mph 148° @ 0322 AM 74 69 90 76 29.64" 0 0 63  
Mertzon 3NNE  10:10 AM 65 51 61% NW1520 28 mph 289° @ 0904 AM 79 63 81 48 29.69" 0 0 103  
Morton 1ENE  10:10 AM 40 36 86% N3138 42 mph 356° @ 1005 AM 50 38 92 71 29.84" 0.01 0.01 385  
Muleshoe 2SSW  10:10 AM 36 34 93% N2432 33 mph 356° @ 1000 AM 49 35 96 79 29.88" 0 0.09 145  
New Home  10:10 AM 46 40 79% N2131 35 mph 13° @ 0737 AM 69 45 91 47 29.83" 0 0 98  
Northfield 1S  10:10 AM 46 43 91% N1926 42 mph 4° @ 0420 AM 60 45 94 69 29.77" 0 0.67 156  
O'Donnell 1N  10:10 AM 47 41 82% N2633 34 mph 359° @ 0745 AM 72 47 82 52 29.80" 0 0 89  
Odell 4ENE  10:10 AM 49 48 96% N1116 50 mph 26° @ 0609 AM 71 47 99 76 29.69" 0 0.79 57  
Olton 6S  10:10 AM 36 33 91% NW3138 47 mph 2° @ 0145 AM 49 36 93 84 29.86" 0 0.45 55  
Paducah 10SW  10:10 AM 46 44 95% N2429 42 mph 352° @ 0410 AM 69 46 98 69 29.73" 0 0.99 155  
Palo Duro Canyon SP Floor  10:10 AM 38 34 88% NW1621 34 mph 320° @ 0126 AM 51 38 93 80 29.90" 0.01 0.38 37  
Palo Duro Canyon State Park Rim  10:10 AM 35 32 91% NW1826 40 mph 328° @ 0122 AM 48 35 93 86 29.89" 0 0.12 50 24
Pampa 2E  10:10 AM 37 36 100% NW2229 52 mph 3° @ 0505 AM 47 36 100 93 29.81" 0.02 0.63 77  
Panhandle 1SSW  10:10 AM 34 33 96% NW2529 42 mph 3° @ 0128 AM 46 34 98 93 29.88" 0.02 0.55 72 21
Plains 3N  10:10 AM 42 39 90% N2732 38 mph 3° @ 0930 AM 52 42 96 71 29.82" 0 0.01 139  
Plainview 1S  10:10 AM 38 36 96% NW2028 46 mph 336° @ 0130 AM 50 38 97 87 29.85" 0 0.02 64  
Post 1NE  10:10 AM 49 40 72% N1830 31 mph 5° @ 0840 AM 67 49 79 59 29.78" 0 0 88  
Ralls 1SE  10:10 AM 44 40 84% N2331 36 mph 16° @ 0555 AM 59 44 90 65 29.80" 0 0.06 74  
Reese Center  10:10 AM 40 37 91% N3037 38 mph 2° @ 0715 AM 53 40 95 77 29.84" 0 0.05 147  
Roaring Springs 3N  10:10 AM 44 44 100% N2536 43 mph 351° @ 0340 AM 57 44 100 77 29.76" 0 0.68 232  
San Angelo 7NW  10:10 AM 64 49 59% NW2231 31 mph 326° @ 1010 AM 79 64 78 44 29.67" 0 0 370  
Seagraves 1SW  10:10 AM 48 40 74% N2128 41 mph 351° @ 0105 AM 55 46 92 69 29.81" 0 0.01 188  
Seminole 2NNE  10:10 AM 49 38 68% N2632 37 mph 2° @ 0940 AM 57 48 85 62 29.80" 0 0 192  
Seymour 3NW  10:10 AM 50 48 93% NW1723 42 mph 311° @ 0555 AM 76 50 93 69 29.67" 0 0 56  
Sierra Blanca 1SSE  10:10 AM 50 33 51% NW1418 34 mph 311° @ 0410 AM 73 49 70 31 29.91" 0 0 62  
Silverton 7ESE  10:10 AM 40 39 98% NW2230 42 mph 13° @ 0340 AM 51 40 98 78 29.82" 0 0.35 53  
Slaton 2NE  10:10 AM 45 40 84% N2737 37 mph 352° @ 1010 AM 66 45 93 54 29.80" 0 0.30 63  
Snyder 3E  10:10 AM 50 45 82% N2230 38 mph 7° @ 0815 AM 76 49 85 67 29.73" 0 0 90  
Snyder 3SSW  10:10 AM 50 44 80% N1621 38 mph 4° @ 0738 AM 76 50 83 66 29.75" 0 0 54  
Spur 1W  10:10 AM 48 43 84% N1925 37 mph 15° @ 0520 AM 71 47 90 59 29.74" 0 0.02 116  
St. Lawrence 5SW  10:10 AM 56 45 69% N2430 33 mph 156° @ 0125 AM 76 56 71 42 29.75" 0 0 184  
Stamford 5ESE  10:10 AM 50 48 94% N1923 33 mph 166° @ 0421 AM 78 50 95 58 29.70" 0.01 0.01 54  
Sterling City 4WSW  10:10 AM 54 45 73% NW1519 29 mph 330° @ 0934 AM 77 54 76 51 29.75" 0 0 120  
Stinnett 1NNW  10:10 AM 33 32 96% NW2833 42 mph 28° @ 0332 AM 46 33 98 94 29.90" 0.01 0.43 78 19
Sundown 8WSW  10:10 AM 44 39 82% N2431 37 mph 352° @ 1005 AM 51 42 95 75 29.82" 0 0.02 464  
Sweetwater 11SW   10:10 AM 49 45 85% N1924 34 mph 7° @ 0853 AM 76 49 89 67 29.74" 0 0 157  
Tahoka 3NNE  10:10 AM 46 40 80% N2936 39 mph 353° @ 0744 AM 68 46 88 48 29.80" 0 0.09 104  
Tarzan 2WNW  10:10 AM 50 43 75% N2531 34 mph 343° @ 0849 AM 75 49 82 44 29.79" 0 0 162  
Tatum NM 2SW  10:10 AM 40 33 78% N2735 37 mph 11° @ 0930 AM 50 40 87 65 29.86" 0 0 184  
Throckmorton 1SW  10:10 AM 51 49 93% NW1216 34 mph 296° @ 0559 AM 75 51 93 69 29.67" 0 0 22  
Tulia 2ENE  10:10 AM 35 35 100% NW2835 41 mph 355° @ 0205 AM 48 35 100 93 29.86" 0.01 0.61 51 22
Turkey 2WSW  10:10 AM 43 42 97% NW2429 39 mph 329° @ 0245 AM 56 43 98 74 29.78" 0 0.22 189  
Umbarger 3NNE  10:10 AM 33 31 95% N2226 38 mph 338° @ 1251 AM 45 32 96 88 29.92" 0.01 0.16 82 21
Vigo Park  10:10 AM 36 34 94% NW2328 38 mph 329° @ 0136 AM 48 36 96 86 29.87" 0.02 0.77 29  
Wall 2E  10:10 AM 70 52 53% W1520 32 mph 148° @ 0224 AM 80 70 79 48 29.65" 0 0 110  
Weinert 2NNE  10:10 AM 50 47 90% N2027 36 mph 321° @ 0517 AM 76 49 92 67 29.69" 0.01 0.01 109  
Welch  10:10 AM 48 40 74% N3136 41 mph 358° @ 0100 AM 75 46 88 43 29.80" 0 0 145  
White River Lake 6NW  10:05 AM 47 40 75% N2633 38 mph 352° @ 0700 AM 69 47 84 58 29.76" 0 0 123  
Wolfforth 6SSW  10:10 AM 43 40 90% N3037 41 mph 0° @ 0730 AM 60 43 95 63 29.82" 0 0.12 123  

West Texas Mesonet Home   Site Map/Menu  NWS Lubbock Soil Data  Daily Summary Page  24hr Precip  72hr Precip  Google Plot